Location: Bauerbach
(50.4985°N, 10.3912°E)
Time: 21:52:51
(UTC+00:00)

Alouette 2 Rocket - Pass Details

Date: 13 January 2026
Orbit: 502 x 2614 km, 79.8° (Epoch: 17 February)

Event Time Altitude Azimuth Distance (km) Brightness Sun altitude
Exits shadow 04:16:11 60° 212° (SSW) 1,099 4.5 -27.6°
Maximum altitude 04:17:21 81° 286° (WNW) 1,047 4.4 -27.4°
Drops below altitude 10° 04:25:44 10° 14° (NNE) 3,659 7.6 -26.0°
Sets 04:29:24 0° 16° (NNE) 4,986 8.3 -25.5°
